GAOFEN 8

导读 | 星芒AI

高分八号(GAOFEN 8)卫星是中国高分辨率对地观测系统的重要组成部分,由国家航天局主导研制。该卫星主要用于国土普查、城市规划、环境监测等领域,具备高分辨率、多光谱成像能力。GAOFEN 8于2015年成功发射,运行在太阳同步轨道,为国家提供了高质量的遥感数据支持,提升了中国在遥感应用方面的自主能力。

基本信息
目录编号:
40701
目录名称:
GAOFEN 8
国际标识:
2015-030A
轨道中心:
EARTH
卫星名称:
GAOFEN 8
卫星全名:
--
卫星状态:
在轨 (已飞行3825 天)
发射日期:
2015-06-26 UTC
国别 :
中国 (CN)
星等 :
--
轨道信息
数据来源 国际轨道数据
星历时间: 2025-12-15T07:32:40+0800
19小时前
查看轨道信息
半长轴: 6828.287km
偏心率: 0.0011605
轨道倾角: 97.691°
近地点辐角 130.083°
升交点赤经 167.231°
平近点角 230.144°
近地点: 442.227km
远地点: 458.077km
周期: 93.590分钟
每日圈数: 15.386333
详细信息
使用方式:
暂无
2D轨道图
3D轨道图
轨道高度分析图
轨道倾角分析图
轨道综合分析图
查看轨道综合分析图